Simultaneous Nadir Overpasses (SNOs) Predictions

Prediction of SNOs between AQUA and METOP-B Satellite Orbit:

Table of predicted SNOs for the next 14.0 days since TLE Epoch: 3/22/2025
Index Date (AQUA) Time (AQUA) Lat,Lon (AQUA) SZA (AQUA ) Date (METOP-B) Time (METOP-B) Lat,Lon (METOP-B) SZA (METOP-B ) Distance(km) Time Diff (sec)
1 03/22/2025 18:11:02 -77.12, 86.05 103.89 03/22/2025 18:10:20 -77.10, 86.05 103.90 2.01 42
2 03/22/2025 19:00:22 77.16,-106.44 76.15 03/22/2025 19:00:59 77.16,-106.36 76.15 1.95 37
3 03/25/2025 06:59:59 -77.14,-106.22 104.86 03/25/2025 06:59:21 -77.12,-106.16 104.88 3.13 38
4 03/25/2025 07:49:19 77.19, 61.27 75.18 03/25/2025 07:50:00 77.18, 61.42 75.16 3.79 41
5 03/27/2025 19:48:52 -77.14, 61.64 105.86 03/27/2025 19:48:22 -77.12, 61.57 105.88 2.68 30
6 03/27/2025 20:38:12 77.19,-130.89 74.18 03/27/2025 20:39:01 77.18,-130.86 74.17 1.17 49
7 03/30/2025 08:37:42 -77.15,-130.56 106.84 03/30/2025 08:37:22 -77.15,-130.59 106.84 0.78 20
8 03/30/2025 09:27:02 77.21, 36.90 73.21 03/30/2025 09:28:01 77.21, 36.97 73.21 1.84 59
9 04/01/2025 21:26:29 -77.18, 37.19 107.79 04/01/2025 21:26:22 -77.17, 37.19 107.80 1.84 7
10 04/01/2025 22:15:48 77.19,-155.18 72.22 04/01/2025 22:17:01 77.22,-155.25 72.24 3.47 73
11 04/04/2025 09:25:53 77.15, 37.55 71.22 04/04/2025 09:24:41 77.14, 37.49 71.22 1.50 72
12 04/04/2025 10:15:12 -77.19,-154.93 108.76 04/04/2025 10:15:21 -77.21,-154.91 108.73 2.74 9



Historial Predications of SNOs between AQUA and METOP-B
